Zurück zum Katalog

FENGYUN 1C DEB

AktivSSO
NORAD 31021·DEBRIS·🇨🇳 China

Gestartet May 10, 1999 von Taiyuan Satellite Launch Center

Loading…

Nächste Überflüge (nächste 24 Stunden)

TLE

AktuellSource: Space-Track

Epoche: Sep 14, 2026, 02:07 UTC

1 31021U 99025BDP 26257.08869377  .00004045  00000-0  31620-3 0  9990
2 31021  98.3749  22.9259 0257563  81.9238 281.1105 14.79064912774983

Verfolge FENGYUN 1C DEB in Echtzeit mit AllMySat

Download on the App Store